HULIANWANG DIGUI-31

Satellite information

Favourite Embed

Satellite Type and Status

PAYLOADIN ORBIT

Key statistics

Satellite HULIANWANG DIGUI-31 at a glance.

Uptime

30

Days in orbit

Revolutions

≈ 13.7

Per day

Orbit

LEO

Low Earth Orbit

Inclination

86.5

Latest

Satellite identification and parameters

Extended collection of information and parameters for HULIANWANG DIGUI-31.

Object identification

Identified? True

Debris? False

Object name: HULIANWANG DIGUI-31

International designator: 2025-121B

Object number (NORAD): 64284

Object ID (CCSDS): 64284

Country: PEOPLES REPUBLIC OF CHINA (PRC)

Current information (Y/N): Y

RCS size: LARGE

Orbital parameters

Period: 105.473 minutes

Inclination: 86.5025 deg

SMA: 7394.701 km

Apoapsis: 1024.713 km

Periapsis: 1008.418 km

RAAN: 132.2085 deg

Eccentricy: 0.0011018

Argument of periapsis: 134.7749 deg

Mean anomaly: 225.4306 deg

Mean motion: 13.6528043 rev/day

Mean motion (dot): 0.0 rev/day2

B* drag term: -0.000019697 1/REarth

Two-line elements (TLE)

Creation date: July 4, 2025, 6:39 p.m.

Reference frame: TEME

Reference center: EARTH

Epoch: July 4, 2025, 2:24 p.m. UTC

TLE line 0: 0 HULIANWANG DIGUI-31

TLE line 1: 1 64284U 25121B 25185.60030025 .00000000 00000-0 -19697-4 0 9999

TLE line 2: 2 64284 86.5025 132.2085 0011018 134.7749 225.4306 13.65280430 3938

Live tracking on map

Real-time ground track for satellite HULIANWANG DIGUI-31.

In-orbit conjunctions

There are no conjunctions computed for HULIANWANG DIGUI-31, at the moment. Check back to stay up to date, as we update our databases every day.

Go to all conjunctions

Associated space launch

A batch of Low Earth Orbit communication satellites for the Chinese state owned SatNet constellation operated by the China Satellite Network Group. The constellation will eventually consists of 13000 satellites.

HULIANWANG DIGUI-31 was lifted into orbit during the mission ‘Long March 6A | SatNet LEO Group 04’, on board a Long March 6A space rocket.

The launch took place on June 5, 2025, 8:45 p.m. from Launch Complex 9A.

For more information about the launch, click the button.

Launch to space Long March 6A | SatNet LEO Group 04
Long March 6A | SatNet LEO Group 04

Agency: N/A

Status: Launch Successful

Launch date: June 5, 2025, 8:45 p.m. UTC

Rocket: Long March 6A

Launch pad: Launch Complex 9A

Location: Taiyuan Satellite Launch Center, People's Republic of China

...

Latest news about this satellite

News about space launch
China launches fourth group of Guowang megaconstellation satellites

China launched a fourth group of satellites for its Guowang low Earth orbit megaconstellation Thursday, but released few details about the payload or objectives. The post China launches fourth group of Guowang megaconstellation satellites appeared first ...


Newsletter sign-up

Weekly statistics, charts and insights to help you stay on top of the space industry.